User: anonymous   Login
Location: ????????
(54.9045°N, 39.1041°E)
Time: 01:25:24
(UTC+00:00)
Language:

Cosmos 923 Rocket - Orbit

View from above orbital plane
View from above orbital plane
View from above satellite
View from above satellite

Ground track
Ground track

The orbit data is extracted from the following two-line orbital elements,

1 10121U 77059B   24174.25333347  .00000271  00000-0  10070-3 0  9992
2 10121  74.0464 111.1150 0019149 194.0824 165.9798 14.36663048457354
Epoch (UTC): 22 June 2024 06:04:48
Eccentricity: 0.0019149
inclination: 74.0464°
perigee height: 756 km
apogee height: 783 km
right ascension of ascending node: 111.1150°
argument of perigee: 194.0824°
revolutions per day: 14.36663048
mean anomaly at epoch: 165.9798°
orbit number at epoch: 45735

The dashed part of the orbit path shows where the satellite is in the earth's shadow,  

DLR